This demonstration page uses our WeatherBlox Daily Observations layout. Learn more.

Left ArrowRight Arrow

39.92423, -83.80882

Hourly Observations for July 26, 2019

Temp ( °F °C ) Dew Point ( °F °C ) Humidity (%) Winds ( mph kmh ) Pressure ( in mb ) Visibility ( mi km ) Precip ( " mm )
12:56 am 00:56 Clear 62 16.7 61 16.1 96 96 N N/A 30.24 1024 10 16.0934 N/A
1:56 am 01:56 Clear 60 15.6 60 15.6 100 100 E 5 7 30.24 1024 10 16.0934 N/A
2:56 am 02:56 Clear 60 15.6 60 15.6 100 100 N N/A 30.24 1024 10 16.0934 N/A
3:56 am 03:56 Clear 57 13.9 57 13.9 100 100 E 3 6 30.23 1024 10 16.0934 N/A
4:56 am 04:56 Clear 59 15 59 15 100 100 ESE 5 7 30.23 1024 10 16.0934 N/A
5:56 am 05:56 Clear 58 14.4 58 14.4 100 100 E 3 6 30.25 1024 10 16.0934 N/A
6:56 am 06:56 Sunny 57 13.9 57 13.9 100 100 E 3 6 30.27 1025 9 14.48406 N/A
7:56 am 07:56 Sunny 62 16.7 60 15.6 93 93 N N/A 30.27 1025 10 16.0934 N/A
8:56 am 08:56 Sunny 69 20.6 62 16.7 78 78 N N/A 30.29 1026 10 16.0934 N/A
9:56 am 09:56 Sunny 75 23.9 63 17.2 66 66 S 7 11 30.29 1026 10 16.0934 N/A
10:56 am 10:56 Sunny 78 25.6 62 16.7 58 58 VRB 3 6 30.29 1026 10 16.0934 N/A
11:56 am 11:56 Mostly Cloudy 80 26.7 61 16.1 52 52 VRB 5 7 30.29 1026 10 16.0934 N/A
12:56 pm 12:56 Partly Cloudy 80 26.7 61 16.1 52 52 S 6 9 30.29 1026 10 16.0934 N/A
1:56 pm 13:56 Mostly Sunny 80 26.7 59 15 49 49 VRB 5 7 30.27 1025 10 16.0934 N/A
2:56 pm 14:56 Mostly Sunny 80 26.7 58 14.4 47 47 VRB 3 6 30.26 1025 10 16.0934 N/A
3:56 pm 15:56 Partly Cloudy 82 27.8 60 15.6 47 47 SSE 7 11 30.24 1024 10 16.0934 N/A
4:56 pm 16:56 Sunny 83 28.3 59 15 44 44 N N/A 30.24 1024 10 16.0934 N/A
5:56 pm 17:56 Sunny 81 27.2 59 15 47 47 N N/A 30.23 1024 10 16.0934 N/A
6:56 pm 18:56 Sunny 81 27.2 62 16.7 53 53 S 5 7 30.22 1023 10 16.0934 N/A
7:56 pm 19:56 Sunny 78 25.6 63 17.2 60 60 N N/A 30.22 1023 10 16.0934 N/A
8:56 pm 20:56 Clear 76 24.4 63 17.2 64 64 SSE 5 7 30.22 1023 10 16.0934 N/A
9:56 pm 21:56 Clear 70 21.1 65 18.3 84 84 E 3 6 30.23 1024 10 16.0934 N/A
10:56 pm 22:56 Clear 67 19.4 64 17.8 91 91 N N/A 30.24 1024 10 16.0934 N/A
11:56 pm 23:56 Clear 67 19.4 63 17.2 87 87 SSE 5 7 30.23 1024 10 16.0934 N/A

Powered by AerisWeather